Airfield :
LOGIN :

Register | Disclaimer

   EN    FR    IT 

 










Legend :    VFR   Marginal VFR   IFR   Intensive IFR   Very Intensive IFR
Visi :
Ceiling :
>= 8 km
>= 3000ft
5 to 8 km
1000 to 3000 ft
1500m to 5 km
500 to 1000 ft
800 to 1500m
200 to 500 ft
< 800m
< 200 ft
Symbols :   Thunderstorms  Fog  Heavy snow  Heavy precipitations  Wind > 20 kt
SIGMETs :     Misc.  Thunderstorms  Icing  Turbulence  Mountain Waves  Volcanic Ashes






- Airport Elevation : 239 ft
- IATA code : VRN


LIPX - Villafranca Int. Verona

CURRENT METAR :
  • 100520Z 02004KT CAVOK 14/10 Q1017

EXPIRED METARs :
  • 100450Z 35003KT CAVOK 12/08 Q1017
  • 100420Z 29001KT CAVOK 11/08 Q1017
  • 100350Z 29003KT 250V310 CAVOK 12/08 Q1016
  • 100320Z 35004KT CAVOK 11/08 Q1016
  • 100250Z 04005KT CAVOK 12/08 Q1016

TAF TAF LIPX
Valid from the 10 at 06:00 until the 10 at 15:00 UTC


100500Z 1006/1015 10005KT 9999 SCT050



MET'MAP, your aeronautical weather chart ! - Copyright ORBIFLY December 2007 - Disclaimer

ORBIFLY MET'MAP TEAM :

Programming & Development : Alexandra Zaïnal
Concept & original design : Baudouin d'Aumeries
Assistance for programming : Marc-Olivier Méhu
Technical & hardware support : Manuel Goepfert

Contact : metmap@orbifly.com




SOURCES & CREDITS :

   NOAA